QPF
0.00 0.00 0.00 0.00 0.00 0.01 0.01 0.01 0.02 0.02 0.02 0.02 0.02 0.03 0.04 0.03 0.02 0.03 0.04 0.06 0.04 0.04 0.07 0.06 0.08 0.08 0.09 0.09 0.10 0.10 0.09 0.08 0.08 0.08 0.07 0.05 0.03 0.03 0.03 0.04 0.05 0.05 0.03
0.00 0.00 0.00 0.01 0.01 0.01 0.01 0.01 0.01 0.01 0.01 0.02 0.04 0.03 0.03 0.03 0.02 0.02 0.04 0.05 0.05 0.06 0.07 0.08 0.07 0.08 0.09 0.10 0.10 0.10 0.10 0.08 0.08 0.10 0.10 0.07 0.05 0.03 0.02 0.02 0.03 0.03 0.02
0.00 0.00 0.00 0.01 0.01 0.01 0.00 0.00 0.00 0.00 0.01 0.02 0.02 0.02 0.03 0.03 0.02 0.03 0.05 0.05 0.04 0.05 0.07 0.08 0.06 0.07 0.09 0.11 0.12 0.10 0.10 0.10 0.10 0.09 0.10 0.09 0.07 0.05 0.04 0.03 0.03 0.03 0.04
0.00 0.00 0.00 0.00 0.01 0.01 0.00 0.00 0.01 0.01 0.01 0.01 0.02 0.03 0.03 0.03 0.03 0.03 0.04 0.06 0.04 0.04 0.04 0.06 0.06 0.08 0.10 0.12 0.10 0.09 0.12 0.14 0.13 0.10 0.08 0.09 0.07 0.08 0.07 0.05 0.03 0.03 0.04
0.00 0.00 0.00 0.00 0.00 0.01 0.01 0.01 0.01 0.01 0.01 0.01 0.03 0.04 0.04 0.03 0.03 0.03 0.03 0.04 0.04 0.03 0.03 0.05 0.08 0.11 0.10 0.10 0.09 0.09 0.10 0.09 0.10 0.08 0.07 0.08 0.10 0.10 0.10 0.10 0.10 0.08 0.07
0.00 0.00 0.00 0.00 0.00 0.01 0.01 0.01 0.01 0.01 0.01 0.01 0.01 0.03 0.04 0.03 0.03 0.03 0.05 0.05 0.04 0.03 0.03 0.03 0.04 0.06 0.08 0.08 0.09 0.10 0.08 0.08 0.08 0.08 0.06 0.07 0.10 0.11 0.10 0.10 0.10 0.09 0.07
0.00 0.00 0.00 0.00 0.01 0.01 0.01 0.01 0.01 0.02 0.02 0.01 0.01 0.01 0.02 0.02 0.04 0.04 0.03 0.04 0.03 0.03 0.03 0.03 0.04 0.05 0.08 0.07 0.07 0.08 0.08 0.09 0.08 0.07 0.07 0.08 0.08 0.07 0.08 0.06 0.04 0.06 0.06
0.00 0.00 0.01 0.01 0.01 0.01 0.01 0.01 0.01 0.01 0.01 0.01 0.01 0.01 0.01 0.02 0.02 0.02 0.02 0.04 0.03 0.03 0.03 0.03 0.04 0.06 0.07 0.06 0.06 0.08 0.08 0.08 0.07 0.06 0.07 0.08 0.06 0.06 0.07 0.08 0.07 0.06 0.05
0.00 0.00 0.00 0.01 0.01 0.01 0.01 0.01 0.01 0.01 0.01 0.01 0.01 0.01 0.01 0.01 0.01 0.02 0.02 0.03 0.03 0.02 0.03 0.04 0.06 0.06 0.05 0.06 0.06 0.07 0.08 0.08 0.06 0.06 0.05 0.05 0.05 0.05 0.05 0.06 0.07 0.07 0.06
0.00 0.00 0.01 0.01 0.00 0.01 0.01 0.01 0.01 0.01 0.00 0.00 0.00 0.01 0.01 0.01 0.01 0.02 0.02 0.03 0.04 0.03 0.03 0.04 0.06 0.06 0.05 0.06 0.06 0.05 0.06 0.05 0.04 0.03 0.04 0.04 0.04 0.05 0.05 0.04 0.05 0.06 0.06
0.00 0.00 0.01 0.00 0.00 0.01 0.01 0.01 0.01 0.01 0.00 0.00 0.00 0.01 0.01 0.01 0.02 0.02 0.02 0.03 0.05 0.06 0.06 0.05 0.06 0.06 0.05 0.05 0.05 0.04 0.03 0.02 0.02 0.02 0.02 0.03 0.04 0.04 0.04 0.04 0.04 0.05 0.06
0.00 0.00 0.01 0.00 0.00 0.00 0.01 0.01 0.01 0.01 0.01 0.01 0.01 0.01 0.01 0.01 0.02 0.02 0.02 0.03 0.05 0.06 0.06 0.06 0.06 0.06 0.05 0.05 0.05 0.04 0.03 0.02 0.02 0.02 0.03 0.04 0.04 0.05 0.04 0.04 0.04 0.04 0.05
0.00 0.00 0.00 0.00 0.01 0.01 0.02 0.01 0.01 0.01 0.01 0.01 0.01 0.01 0.01 0.01 0.02 0.02 0.02 0.04 0.05 0.05 0.06 0.05 0.05 0.04 0.04 0.03 0.03 0.04 0.03 0.03 0.03 0.03 0.04 0.05 0.07 0.06 0.06 0.05 0.05 0.04 0.04
0.01 0.01 0.01 0.01 0.01 0.02 0.01 0.01 0.01 0.01 0.01 0.01 0.01 0.01 0.01 0.01 0.02 0.03 0.03 0.04 0.04 0.04 0.05 0.04 0.04 0.03 0.02 0.02 0.03 0.03 0.03 0.04 0.03 0.05 0.06 0.05 0.05 0.05 0.06 0.06 0.05 0.05 0.06
0.00 0.01 0.01 0.01 0.01 0.01 0.02 0.02 0.02 0.01 0.01 0.01 0.01 0.02 0.02 0.01 0.01 0.02 0.03 0.03 0.03 0.03 0.03 0.02 0.02 0.01 0.01 0.01 0.02 0.04 0.04 0.04 0.03 0.04 0.03 0.03 0.04 0.05 0.05 0.05 0.05 0.06 0.06
0.00 0.00 0.00 0.00 0.01 0.01 0.02 0.02 0.03 0.02 0.02 0.02 0.03 0.04 0.04 0.03 0.03 0.02 0.02 0.02 0.01 0.01 0.01 0.01 0.01 0.01 0.00 0.01 0.02 0.03 0.03 0.04 0.04 0.04 0.03 0.03 0.03 0.02 0.03 0.03 0.04 0.04 0.05
0.00 0.00 0.00 0.01 0.01 0.02 0.02 0.03 0.04 0.04 0.05 0.05 0.05 0.06 0.06 0.05 0.03 0.01 0.01 0.01 0.02 0.02 0.01 0.01 0.02 0.02 0.02 0.03 0.03 0.04 0.04 0.03 0.03 0.03 0.03 0.02 0.03 0.04 0.04 0.06 0.05 0.05 0.04
0.00 0.01 0.01 0.02 0.02 0.02 0.02 0.01 0.01 0.02 0.02 0.03 0.03 0.03 0.03 0.02 0.01 0.01 0.01 0.02 0.02 0.02 0.02 0.02 0.03 0.03 0.03 0.03 0.04 0.05 0.03 0.03 0.03 0.03 0.02 0.03 0.03 0.04 0.05 0.07 0.07 0.06 0.05
0.00 0.01 0.02 0.02 0.03 0.02 0.02 0.01 0.01 0.01 0.01 0.02 0.02 0.03 0.03 0.03 0.02 0.02 0.02 0.02 0.02 0.02 0.02 0.02 0.03 0.03 0.04 0.05 0.05 0.05 0.03 0.03 0.04 0.04 0.03 0.03 0.03 0.04 0.05 0.05 0.07 0.06 0.06
0.01 0.01 0.02 0.02 0.02 0.01 0.02 0.02 0.01 0.02 0.02 0.03 0.03 0.03 0.04 0.04 0.04 0.03 0.02 0.02 0.02 0.03 0.03 0.03 0.03 0.03 0.04 0.04 0.04 0.04 0.03 0.03 0.03 0.04 0.05 0.06 0.06 0.06 0.05 0.04 0.05 0.05 0.06
0.02 0.02 0.02 0.01 0.01 0.01 0.02 0.02 0.03 0.04 0.04 0.05 0.05 0.05 0.06 0.06 0.04 0.02 0.02 0.01 0.02 0.02 0.02 0.02 0.02 0.03 0.03 0.03 0.04 0.04 0.03 0.03 0.03 0.04 0.05 0.07 0.09 0.09 0.08 0.06 0.05 0.04 0.04
0.01 0.02 0.02 0.01 0.01 0.01 0.02 0.03 0.03 0.04 0.06 0.09 0.09 0.08 0.07 0.06 0.05 0.03 0.02 0.02 0.02 0.02 0.01 0.01 0.02 0.03 0.03 0.03 0.03 0.03 0.03 0.03 0.03 0.04 0.05 0.04 0.04 0.05 0.06 0.05 0.04 0.03 0.02
0.01 0.02 0.02 0.02 0.02 0.02 0.03 0.03 0.04 0.04 0.06 0.07 0.07 0.07 0.06 0.04 0.04 0.03 0.03 0.03 0.02 0.02 0.02 0.02 0.02 0.03 0.03 0.03 0.02 0.02 0.03 0.03 0.03 0.03 0.03 0.04 0.05 0.04 0.05 0.06 0.05 0.03 0.02
0.02 0.03 0.02 0.02 0.02 0.03 0.03 0.04 0.05 0.06 0.06 0.05 0.05 0.05 0.05 0.06 0.05 0.05 0.05 0.04 0.03 0.02 0.02 0.01 0.01 0.01 0.01 0.01 0.01 0.02 0.02 0.02 0.02 0.02 0.02 0.04 0.06 0.07 0.07 0.07 0.06 0.05 0.04
0.02 0.03 0.03 0.04 0.04 0.04 0.05 0.05 0.06 0.08 0.08 0.06 0.05 0.06 0.07 0.09 0.10 0.08 0.05 0.03 0.02 0.02 0.01 0.01 0.02 0.02 0.01 0.02 0.02 0.02 0.02 0.03 0.03 0.02 0.02 0.01 0.02 0.03 0.04 0.04 0.04 0.04 0.04
0.02 0.03 0.05 0.06 0.06 0.05 0.06 0.07 0.08 0.09 0.09 0.10 0.12 0.12 0.12 0.13 0.13 0.09 0.05 0.03 0.02 0.02 0.02 0.03 0.03 0.03 0.03 0.04 0.03 0.03 0.03 0.04 0.03 0.02 0.01 0.01 0.01 0.02 0.02 0.02 0.02 0.02 0.01
MSLP
1013.67 1013.92 1014.18 1014.45 1014.72 1014.98 1015.22 1015.44 1015.64 1015.81 1015.96 1016.08 1016.20 1016.30 1016.41 1016.53 1016.65 1016.79 1016.94 1017.08 1017.23 1017.36 1017.49 1017.62 1017.74 1017.88 1018.04 1018.21 1018.39 1018.55 1018.69 1018.79 1018.80 1018.74 1018.59 1018.35 1018.05 1017.71 1017.33 1016.97 1016.63 1016.35 1016.14
1013.36 1013.69 1014.03 1014.37 1014.69 1014.98 1015.23 1015.44 1015.63 1015.79 1015.95 1016.08 1016.21 1016.32 1016.43 1016.52 1016.62 1016.71 1016.80 1016.89 1016.99 1017.10 1017.22 1017.35 1017.50 1017.67 1017.84 1018.03 1018.21 1018.38 1018.52 1018.62 1018.65 1018.61 1018.50 1018.30 1018.03 1017.70 1017.33 1016.95 1016.58 1016.24 1015.96
1012.95 1013.37 1013.81 1014.23 1014.62 1014.94 1015.21 1015.43 1015.62 1015.78 1015.93 1016.08 1016.21 1016.33 1016.42 1016.50 1016.55 1016.59 1016.62 1016.66 1016.71 1016.79 1016.90 1017.03 1017.19 1017.38 1017.58 1017.78 1017.97 1018.14 1018.28 1018.38 1018.43 1018.42 1018.34 1018.19 1017.97 1017.68 1017.35 1016.98 1016.61 1016.26 1015.96
1012.45 1012.97 1013.51 1014.01 1014.46 1014.83 1015.12 1015.36 1015.55 1015.71 1015.87 1016.02 1016.16 1016.28 1016.36 1016.41 1016.42 1016.41 1016.38 1016.36 1016.36 1016.40 1016.49 1016.63 1016.80 1017.00 1017.22 1017.44 1017.64 1017.82 1017.97 1018.08 1018.15 1018.16 1018.12 1018.02 1017.86 1017.64 1017.36 1017.04 1016.71 1016.38 1016.08
1011.89 1012.49 1013.11 1013.69 1014.19 1014.61 1014.92 1015.17 1015.37 1015.54 1015.70 1015.86 1016.01 1016.13 1016.21 1016.24 1016.22 1016.15 1016.07 1015.99 1015.94 1015.93 1015.99 1016.11 1016.29 1016.51 1016.75 1016.99 1017.21 1017.41 1017.58 1017.71 1017.79 1017.84 1017.85 1017.80 1017.71 1017.55 1017.35 1017.10 1016.82 1016.53 1016.26
1011.28 1011.93 1012.61 1013.24 1013.80 1014.24 1014.58 1014.84 1015.04 1015.22 1015.40 1015.57 1015.74 1015.87 1015.95 1015.97 1015.92 1015.82 1015.68 1015.54 1015.43 1015.38 1015.40 1015.50 1015.68 1015.91 1016.16 1016.43 1016.68 1016.91 1017.11 1017.26 1017.39 1017.47 1017.53 1017.54 1017.51 1017.43 1017.30 1017.12 1016.90 1016.67 1016.43
1010.64 1011.31 1012.02 1012.69 1013.27 1013.73 1014.09 1014.35 1014.57 1014.77 1014.97 1015.17 1015.37 1015.52 1015.62 1015.64 1015.58 1015.44 1015.25 1015.06 1014.88 1014.77 1014.75 1014.82 1014.98 1015.21 1015.49 1015.79 1016.08 1016.35 1016.58 1016.78 1016.95 1017.08 1017.18 1017.25 1017.28 1017.27 1017.20 1017.09 1016.93 1016.74 1016.54
1010.00 1010.67 1011.39 1012.06 1012.65 1013.12 1013.48 1013.76 1014.00 1014.23 1014.46 1014.71 1014.94 1015.14 1015.27 1015.30 1015.23 1015.07 1014.84 1014.59 1014.35 1014.18 1014.10 1014.13 1014.27 1014.50 1014.80 1015.12 1015.46 1015.78 1016.06 1016.31 1016.52 1016.71 1016.85 1016.97 1017.05 1017.08 1017.07 1017.01 1016.90 1016.74 1016.56
1009.39 1010.05 1010.75 1011.41 1011.99 1012.46 1012.83 1013.12 1013.39 1013.66 1013.94 1014.23 1014.52 1014.77 1014.94 1015.00 1014.94 1014.77 1014.51 1014.20 1013.91 1013.68 1013.54 1013.53 1013.65 1013.87 1014.18 1014.53 1014.91 1015.27 1015.61 1015.91 1016.17 1016.39 1016.57 1016.72 1016.84 1016.91 1016.93 1016.90 1016.81 1016.68 1016.50
1008.88 1009.50 1010.16 1010.80 1011.35 1011.82 1012.19 1012.51 1012.81 1013.12 1013.47 1013.83 1014.18 1014.49 1014.71 1014.81 1014.77 1014.59 1014.31 1013.97 1013.63 1013.35 1013.16 1013.11 1013.20 1013.41 1013.73 1014.11 1014.52 1014.92 1015.30 1015.64 1015.93 1016.17 1016.38 1016.54 1016.67 1016.75 1016.79 1016.78 1016.70 1016.58 1016.40
1008.51 1009.08 1009.70 1010.29 1010.82 1011.27 1011.65 1011.99 1012.33 1012.69 1013.09 1013.52 1013.94 1014.31 1014.59 1014.74 1014.72 1014.56 1014.28 1013.92 1013.56 1013.24 1013.02 1012.94 1013.01 1013.21 1013.53 1013.92 1014.35 1014.77 1015.17 1015.52 1015.82 1016.07 1016.27 1016.43 1016.54 1016.62 1016.66 1016.65 1016.58 1016.47 1016.29
1008.34 1008.85 1009.41 1009.95 1010.44 1010.87 1011.24 1011.60 1011.97 1012.38 1012.83 1013.32 1013.80 1014.23 1014.56 1014.75 1014.77 1014.64 1014.37 1014.03 1013.66 1013.34 1013.11 1013.02 1013.07 1013.27 1013.58 1013.97 1014.40 1014.82 1015.21 1015.55 1015.82 1016.04 1016.21 1016.34 1016.43 1016.49 1016.52 1016.51 1016.45 1016.35 1016.19
1008.39 1008.84 1009.34 1009.81 1010.24 1010.63 1010.99 1011.34 1011.73 1012.17 1012.66 1013.19 1013.71 1014.18 1014.55 1014.79 1014.85 1014.76 1014.53 1014.22 1013.88 1013.58 1013.37 1013.29 1013.35 1013.54 1013.84 1014.21 1014.61 1015.00 1015.35 1015.64 1015.87 1016.03 1016.14 1016.22 1016.27 1016.31 1016.32 1016.32 1016.28 1016.21 1016.09
1008.68 1009.07 1009.48 1009.88 1010.24 1010.57 1010.89 1011.23 1011.60 1012.04 1012.54 1013.08 1013.62 1014.11 1014.51 1014.77 1014.88 1014.83 1014.66 1014.40 1014.12 1013.87 1013.70 1013.64 1013.72 1013.91 1014.19 1014.54 1014.89 1015.22 1015.50 1015.72 1015.86 1015.95 1015.99 1016.01 1016.01 1016.02 1016.03 1016.04 1016.04 1016.01 1015.95
1009.21 1009.52 1009.84 1010.14 1010.42 1010.67 1010.93 1011.22 1011.56 1011.98 1012.45 1012.97 1013.49 1013.97 1014.37 1014.65 1014.79 1014.79 1014.67 1014.49 1014.28 1014.09 1013.98 1013.97 1014.07 1014.26 1014.52 1014.82 1015.11 1015.36 1015.56 1015.68 1015.73 1015.73 1015.70 1015.65 1015.61 1015.60 1015.60 1015.63 1015.67 1015.70 1015.70
1009.93 1010.15 1010.37 1010.57 1010.75 1010.92 1011.10 1011.32 1011.60 1011.95 1012.37 1012.83 1013.31 1013.75 1014.13 1014.40 1014.55 1014.59 1014.54 1014.42 1014.29 1014.18 1014.13 1014.16 1014.28 1014.47 1014.70 1014.95 1015.17 1015.34 1015.43 1015.46 1015.42 1015.34 1015.23 1015.13 1015.06 1015.03 1015.04 1015.09 1015.16 1015.24 1015.31
1010.77 1010.91 1011.03 1011.13 1011.21 1011.29 1011.38 1011.52 1011.72 1011.99 1012.32 1012.70 1013.10 1013.48 1013.80 1014.05 1014.20 1014.27 1014.25 1014.20 1014.14 1014.10 1014.11 1014.19 1014.32 1014.50 1014.69 1014.88 1015.02 1015.11 1015.12 1015.06 1014.94 1014.79 1014.63 1014.49 1014.39 1014.35 1014.37 1014.44 1014.54 1014.66 1014.77
1011.64 1011.71 1011.75 1011.76 1011.75 1011.74 1011.76 1011.81 1011.93 1012.11 1012.34 1012.63 1012.93 1013.22 1013.47 1013.67 1013.80 1013.87 1013.89 1013.88 1013.87 1013.89 1013.94 1014.04 1014.18 1014.34 1014.50 1014.63 1014.71 1014.71 1014.65 1014.52 1014.34 1014.15 1013.96 1013.80 1013.69 1013.65 1013.67 1013.74 1013.86 1013.98 1014.11
1012.45 1012.47 1012.45 1012.40 1012.33 1012.26 1012.21 1012.20 1012.23 1012.33 1012.47 1012.65 1012.85 1013.05 1013.22 1013.35 1013.45 1013.50 1013.53 1013.55 1013.57 1013.63 1013.71 1013.82 1013.96 1014.09 1014.21 1014.29 1014.30 1014.25 1014.13 1013.96 1013.75 1013.54 1013.34 1013.17 1013.07 1013.02 1013.03 1013.10 1013.19 1013.31 1013.42
1013.13 1013.12 1013.07 1013.00 1012.91 1012.81 1012.72 1012.66 1012.64 1012.66 1012.72 1012.80 1012.91 1013.01 1013.10 1013.17 1013.21 1013.24 1013.27 1013.29 1013.34 1013.41 1013.51 1013.63 1013.75 1013.86 1013.94 1013.97 1013.94 1013.84 1013.69 1013.49 1013.27 1013.05 1012.86 1012.70 1012.60 1012.55 1012.55 1012.58 1012.64 1012.71 1012.77
1013.62 1013.62 1013.59 1013.52 1013.43 1013.34 1013.25 1013.17 1013.12 1013.09 1013.08 1013.08 1013.10 1013.12 1013.13 1013.13 1013.13 1013.14 1013.15 1013.18 1013.24 1013.32 1013.43 1013.55 1013.66 1013.75 1013.79 1013.79 1013.72 1013.60 1013.42 1013.21 1012.99 1012.78 1012.59 1012.45 1012.34 1012.28 1012.25 1012.25 1012.25 1012.24 1012.23
1013.92 1013.95 1013.96 1013.93 1013.88 1013.82 1013.75 1013.68 1013.62 1013.55 1013.50 1013.45 1013.39 1013.34 1013.29 1013.24 1013.20 1013.18 1013.19 1013.23 1013.30 1013.40 1013.52 1013.64 1013.75 1013.82 1013.84 1013.81 1013.72 1013.57 1013.38 1013.16 1012.94 1012.73 1012.55 1012.41 1012.29 1012.21 1012.15 1012.09 1012.03 1011.95 1011.86
1014.06 1014.14 1014.19 1014.22 1014.23 1014.21 1014.18 1014.14 1014.08 1014.00 1013.92 1013.82 1013.72 1013.61 1013.51 1013.43 1013.36 1013.34 1013.35 1013.41 1013.50 1013.63 1013.77 1013.91 1014.02 1014.09 1014.10 1014.05 1013.93 1013.77 1013.56 1013.33 1013.10 1012.88 1012.70 1012.54 1012.41 1012.30 1012.19 1012.09 1011.96 1011.81 1011.65
1014.09 1014.21 1014.31 1014.40 1014.46 1014.50 1014.51 1014.49 1014.44 1014.37 1014.26 1014.14 1014.00 1013.85 1013.72 1013.62 1013.55 1013.53 1013.56 1013.65 1013.79 1013.95 1014.13 1014.30 1014.43 1014.51 1014.52 1014.46 1014.32 1014.13 1013.90 1013.65 1013.39 1013.16 1012.95 1012.76 1012.61 1012.47 1012.32 1012.17 1011.99 1011.79 1011.57
1014.05 1014.20 1014.34 1014.47 1014.58 1014.66 1014.71 1014.71 1014.67 1014.60 1014.48 1014.33 1014.17 1014.01 1013.86 1013.75 1013.69 1013.70 1013.77 1013.91 1014.09 1014.31 1014.54 1014.75 1014.91 1015.01 1015.03 1014.95 1014.80 1014.59 1014.32 1014.03 1013.75 1013.47 1013.23 1013.01 1012.82 1012.65 1012.48 1012.29 1012.09 1011.86 1011.60
1014.01 1014.16 1014.31 1014.46 1014.59 1014.70 1014.76 1014.78 1014.75 1014.67 1014.55 1014.39 1014.21 1014.04 1013.89 1013.79 1013.75 1013.80 1013.91 1014.11 1014.36 1014.64 1014.93 1015.18 1015.38 1015.50 1015.53 1015.45 1015.28 1015.04 1014.74 1014.41 1014.08 1013.76 1013.48 1013.23 1013.01 1012.81 1012.62 1012.43 1012.21 1011.97 1011.71
Thickness
5822 5819 5814 5810 5804 5798 5792 5787 5783 5779 5774 5771 5767 5764 5762 5761 5760 5758 5755 5753 5752 5751 5750 5751 5749 5749 5748 5747 5748 5747 5746 5746 5746 5744 5743 5746 5749 5748 5747 5747 5747 5746 5745
5822 5818 5815 5811 5806 5800 5796 5791 5786 5783 5778 5775 5770 5767 5765 5764 5762 5760 5757 5755 5753 5752 5752 5750 5750 5749 5747 5746 5746 5745 5745 5745 5746 5742 5739 5738 5742 5744 5747 5746 5745 5744 5745
5824 5820 5816 5813 5809 5805 5800 5797 5791 5786 5781 5777 5773 5769 5765 5763 5762 5759 5758 5756 5754 5753 5751 5750 5750 5748 5748 5746 5745 5745 5743 5742 5744 5745 5741 5736 5735 5738 5742 5743 5742 5741 5741
5830 5825 5820 5816 5813 5810 5806 5800 5794 5788 5784 5779 5776 5770 5766 5763 5762 5761 5760 5757 5754 5753 5752 5750 5748 5747 5747 5745 5745 5746 5743 5741 5740 5742 5742 5741 5741 5734 5733 5737 5739 5739 5738
5834 5829 5825 5821 5818 5815 5810 5803 5796 5790 5785 5781 5777 5771 5769 5767 5765 5762 5759 5757 5755 5753 5751 5750 5748 5746 5746 5745 5744 5743 5742 5741 5740 5740 5740 5739 5739 5737 5732 5730 5732 5734 5736
5837 5833 5829 5825 5819 5816 5811 5804 5796 5790 5786 5781 5778 5773 5769 5766 5763 5760 5759 5757 5756 5754 5752 5750 5748 5747 5746 5744 5743 5742 5741 5741 5739 5740 5740 5738 5736 5735 5734 5730 5729 5729 5732
5837 5832 5828 5823 5819 5815 5811 5805 5798 5791 5787 5783 5779 5775 5771 5767 5763 5761 5760 5758 5757 5755 5752 5751 5748 5748 5746 5745 5743 5741 5741 5740 5738 5737 5738 5738 5738 5737 5735 5731 5729 5727 5728
5838 5834 5830 5825 5820 5816 5811 5806 5799 5793 5789 5785 5780 5777 5772 5770 5768 5764 5763 5760 5757 5756 5753 5750 5748 5747 5746 5745 5743 5742 5740 5738 5737 5737 5736 5736 5737 5736 5734 5731 5727 5723 5724
5836 5833 5830 5826 5822 5817 5812 5808 5801 5794 5790 5787 5782 5777 5773 5771 5769 5765 5763 5761 5757 5756 5753 5750 5748 5747 5745 5744 5742 5741 5739 5737 5736 5735 5734 5733 5734 5733 5733 5731 5728 5722 5718
5833 5831 5829 5827 5824 5819 5814 5809 5802 5796 5792 5788 5783 5779 5775 5771 5768 5766 5762 5760 5757 5755 5752 5750 5748 5746 5744 5742 5740 5739 5737 5735 5733 5732 5730 5729 5730 5730 5729 5728 5726 5724 5719
5830 5828 5827 5826 5822 5818 5813 5807 5801 5795 5791 5788 5784 5779 5775 5772 5769 5765 5762 5759 5757 5754 5751 5749 5746 5744 5742 5740 5738 5736 5734 5732 5731 5729 5728 5726 5725 5725 5726 5724 5722 5720 5718
5828 5826 5824 5821 5818 5814 5810 5805 5800 5796 5791 5787 5783 5779 5775 5772 5768 5765 5761 5758 5755 5753 5750 5747 5744 5742 5740 5738 5735 5733 5732 5729 5727 5726 5725 5723 5723 5720 5720 5719 5718 5716 5715
5821 5821 5819 5815 5812 5810 5807 5803 5798 5794 5791 5787 5782 5778 5774 5771 5767 5764 5761 5757 5754 5750 5748 5745 5742 5739 5737 5735 5732 5730 5728 5727 5725 5723 5721 5719 5718 5715 5716 5714 5713 5712 5711
5813 5813 5812 5809 5807 5806 5803 5799 5796 5794 5790 5785 5780 5776 5772 5769 5766 5763 5760 5756 5752 5748 5745 5742 5739 5736 5734 5732 5729 5726 5724 5723 5721 5719 5717 5715 5713 5711 5709 5708 5706 5705 5703
5806 5806 5804 5802 5801 5800 5798 5795 5793 5790 5787 5782 5778 5774 5771 5767 5763 5759 5755 5752 5749 5746 5742 5738 5735 5733 5731 5728 5725 5722 5720 5718 5717 5715 5712 5710 5707 5704 5702 5702 5700 5698 5697
5800 5801 5800 5798 5796 5795 5793 5791 5787 5785 5782 5778 5774 5771 5767 5763 5758 5754 5750 5747 5744 5740 5737 5734 5732 5729 5727 5721 5718 5716 5715 5713 5711 5709 5707 5705 5701 5698 5694 5692 5691 5690 5689
5795 5795 5794 5793 5792 5791 5790 5786 5783 5781 5777 5773 5770 5767 5762 5758 5754 5750 5745 5741 5738 5735 5731 5729 5727 5723 5719 5714 5711 5709 5710 5708 5705 5703 5701 5700 5698 5693 5691 5687 5684 5683 5680
5788 5790 5790 5790 5789 5789 5787 5783 5780 5776 5772 5769 5766 5762 5758 5754 5749 5745 5740 5736 5733 5730 5726 5723 5721 5717 5713 5708 5706 5703 5704 5703 5701 5698 5695 5693 5690 5688 5684 5682 5680 5678 5675
5783 5784 5786 5786 5785 5783 5782 5779 5775 5772 5767 5764 5761 5757 5754 5748 5744 5739 5734 5732 5728 5725 5722 5719 5716 5712 5707 5702 5700 5697 5699 5697 5695 5693 5689 5687 5684 5678 5675 5675 5673 5670 5668
5775 5777 5779 5780 5778 5777 5776 5772 5770 5766 5762 5759 5756 5752 5748 5744 5739 5735 5731 5727 5724 5721 5718 5714 5711 5707 5703 5697 5694 5692 5695 5692 5689 5686 5682 5676 5674 5670 5667 5668 5666 5662 5660
5765 5768 5770 5769 5769 5769 5768 5764 5763 5761 5759 5755 5751 5747 5743 5739 5736 5731 5726 5722 5718 5715 5711 5707 5704 5701 5697 5692 5689 5686 5688 5687 5684 5681 5678 5673 5666 5662 5659 5658 5657 5654 5652
5755 5758 5758 5759 5760 5760 5758 5756 5754 5755 5752 5748 5744 5740 5737 5735 5731 5725 5720 5715 5711 5707 5703 5699 5697 5695 5691 5686 5682 5678 5677 5676 5676 5674 5672 5665 5659 5655 5651 5650 5647 5645 5644
5744 5747 5747 5748 5749 5750 5750 5747 5747 5746 5742 5738 5735 5732 5730 5726 5723 5719 5714 5709 5706 5704 5701 5696 5692 5690 5687 5682 5675 5671 5668 5666 5666 5664 5659 5654 5650 5647 5645 5641 5639 5638 5639
5733 5736 5737 5737 5737 5738 5739 5739 5739 5737 5733 5729 5727 5723 5721 5718 5714 5712 5709 5705 5702 5699 5696 5691 5687 5685 5682 5678 5673 5669 5663 5658 5657 5655 5650 5646 5643 5641 5638 5636 5634 5634 5633
5721 5723 5724 5725 5725 5727 5728 5729 5729 5727 5723 5720 5718 5715 5714 5711 5705 5701 5697 5695 5693 5691 5687 5686 5682 5678 5674 5668 5662 5661 5659 5656 5653 5649 5646 5644 5641 5638 5636 5633 5630 5627 5625
5709 5711 5713 5714 5715 5716 5717 5719 5719 5718 5715 5712 5709 5707 5705 5701 5698 5692 5686 5680 5679 5675 5673 5670 5668 5666 5661 5655 5651 5647 5644 5641 5638 5639 5639 5637 5635 5632 5630 5627 5623 5620 5617